COSMOS 2251 DEB, 37084

Orbit data source: Space-Track

COSMOS 2251 DEB, 37084 is space debris in LEO originally from a launch on Wed, 16 Jun 1993 UTC launched from the Plesetsk Missile And Space Complex (PKMTR). The debris from Iridium 33, an American commercial communications satellite, has been tracked extensively since its accidental collision with the defunct Russian satellite Cosmos 2251 in 2009. This event, occurring at high speed in low Earth orbit (LEO), generated thousands of pieces of space debris, significantly increasing the risk of further collisions. The Iridium 33 debris cloud has impacted space traffic management and orbital debris mitigation strategies, making it a subject of ongoing study in space situational awareness.

Loading next visibility...
Identifier
37084, 1993-036BFE
Orbit
LEO
Country
Flag of CISCIS
Related business
Manufacturer
Unknown
Mission
Spacecraft
Bus & Motor
Unknown
Mass
Unknown
Launch date (UTC)
1993-06-16 (33 years ago)
Launch vehicle
Unknown
Launch site
Plesetsk Missile And Space Complex (PKMTR)
Object type
Payload
Rocket body
Debris
Shape & HBR
Unknown shape, 0.1 m
Radar Cross Section
Small (<0.1 m²)

Expand to show TLE details & history
Last TLE update: 12 hours ago

TLE from 12 hours ago
0 COSMOS 2251 DEB
1 37084U 93036BFE 26037.36866050  .00008461  00000-0  59012-3 0  9994
2 37084  74.0268  48.0396 0092567 113.7258 247.3675 15.02038443671027
Epoch: 2026-02-06T08:50Z
TLE epoch observation values (Epoch: 2026-02-06T08:50:52.267Z)
Latitude
-0.00001°
Longitude
138.81429°
Altitude
588.527 km
Speed
7.552 km/s
True Right ascension
03h 12m 09s
True Declination
0° 00' 00"
Sunlit
Object was in daylight at epoch
Visualization orbit readout
Latitude
Unknown
Longitude
Unknown
Altitude
Unknown
Speed
Unknown
Apparent Right ascension
Unknown
Apparent Declination
Unknown
Sunlit
N/A
Visualization observer readout
Local Sidereal Time
23:12:58
Azimuth
Unknown
Elevation
Unknown
Doppler factor
Unknown
Orbital elements
Apogee altitude
622.371 km
Perigee altitude
493.956 km
Semi-major axis
6,936.3 km
Eccentricity
0.00926
Inclination
74.0268°
RAAN
48.0396°
Arg. of periapsis
113.7258°
True anomaly
246.39283°
Mean anomaly
247.3675°
Eccentric anomaly
246.87973°
Mean motion
3.75709 °/min
Orbital period
95.82 mins
BSTAR
0.00059012
Loading maneuver chart data...
Computing Atmospheric mass density...

Documentation

Showing up to 5 results
|